Location: *
(50.5492°N, 7.7469°E)
Time: 04:27:27
(UTC+00:00)

ATLAS 5 CENTAUR R/B - Pass Details

Date: 21 October 2019
Orbit: 557 x 1102 km, 63.4° (Epoch: 11 November)

Event Time Altitude Azimuth Distance (km) Brightness Sun altitude
Rises 20:15:32 0° 305° (NW) 3,057 6.1 -36.1°
Reaches altitude 10° 20:18:16 10° 321° (NW) 2,229 5.1 -36.5°
Enters shadow 20:20:33 19° 346° (NNW) 1,766 4.2 -36.8°
